"Period start","avg(HW err(1)/warn(2) (#))","avg(Visibility (m))","avg(Weather code (#))","avg(Precip intensity (mm/h))","min(HW err(1)/warn(2) (#))","max(HW err(1)/warn(2) (#))","std(HW err(1)/warn(2) (#))","med(HW err(1)/warn(2) (#))","min(Visibility (m))","max(Visibility (m))","std(Visibility (m))","med(Visibility (m))","min(Weather code (#))","max(Weather code (#))","std(Weather code (#))","med(Weather code (#))","min(Precip intensity (mm/h))","max(Precip intensity (mm/h))","std(Precip intensity (mm/h))","med(Precip intensity (mm/h))"
2014-05-25 00:00:00,2,3845,20,0.00,2,2,0,2,1765,7131,1989,3128,20,20,0,20,0.00,0.00,0.00,0.00
2014-05-25 00:10:00,2,17600,20,0.00,2,2,0,2,9336,30293,7321,14293,20,20,0,20,0.00,0.00,0.00,0.00
2014-05-25 00:20:00,2,18257,20,0.00,2,2,0,2,2959,46235,16051,11692,20,20,0,20,0.00,0.00,0.00,0.00
2014-05-25 00:30:00,2,5628,20,0.00,2,2,0,2,1568,10388,2677,5114,20,20,0,20,0.00,0.00,0.00,0.00
2014-05-25 00:40:00,2,3324,15,0.00,2,2,0,2,1471,5546,1350,3240,10,20,5,15,0.00,0.00,0.00,0.00
2014-05-25 00:50:00,2,2384,10,0.00,2,2,0,2,1055,6107,1480,1864,10,10,0,10,0.00,0.00,0.00,0.00
2014-05-25 01:00:00,2,2401,10,0.00,2,2,0,2,690,5431,1367,1902,10,10,0,10,0.00,0.00,0.00,0.00
2014-05-25 01:10:00,2,2354,10,0.00,2,2,0,2,1126,4186,1039,2231,10,10,0,10,0.00,0.00,0.00,0.00
2014-05-25 01:20:00,2,10249,10,0.00,2,2,0,2,4453,17628,4119,9764,10,10,0,10,0.00,0.00,0.00,0.00
2014-05-25 01:30:00,2,10257,22,1.64,2,2,0,2,3456,17084,4591,11874,10,40,15,10,0.00,12.00,3.58,0.00
2014-05-25 01:40:00,2,11084,49,1.79,2,2,0,2,5274,14841,3025,11888,0,61,24,61,0.00,6.70,2.20,0.48
2014-05-25 01:50:00,2,13565,7,0.00,2,2,0,2,4110,31846,9558,11038,0,10,5,10,0.00,0.00,0.00,0.00
2014-05-25 02:00:00,2,37872,4,0.00,2,2,0,2,25069,50000,10398,37928,0,10,5,0,0.00,0.00,0.00,0.00
2014-05-25 02:10:00,2,42178,0,0.00,2,2,0,2,30787,50000,6529,43824,0,0,0,0,0.00,0.00,0.00,0.00
2014-05-25 02:20:00,2,40609,0,0.00,2,2,0,2,24085,50000,8100,41196,0,0,0,0,0.00,0.00,0.00,0.00
2014-05-25 02:30:00,2,46910,0,0.00,2,2,0,2,38261,50000,3673,48362,0,0,0,0,0.00,0.00,0.00,0.00
2014-05-25 02:40:00,2,43083,0,0.00,2,2,0,2,24492,50000,7342,45900,0,0,0,0,0.00,0.00,0.00,0.00
2014-05-25 02:50:00,2,40169,0,0.00,2,2,0,2,30450,50000,6527,41054,0,0,0,0,0.00,0.00,0.00,0.00
2014-05-25 03:00:00,2,28712,0,0.00,2,2,0,2,10382,49543,12083,31326,0,0,0,0,0.00,0.00,0.00,0.00
2014-05-25 03:10:00,2,9205,2,0.00,2,2,0,2,4076,15147,4310,7736,0,10,4,0,0.00,0.00,0.00,0.00
2014-05-25 03:20:00,2,6587,10,0.00,2,2,0,2,1698,12810,3562,6472,10,10,0,10,0.00,0.00,0.00,0.00
2014-05-25 03:30:00,2,5613,10,0.00,2,2,0,2,1778,13696,3316,4413,10,10,0,10,0.00,0.00,0.00,0.00
2014-05-25 03:40:00,2,2054,10,0.00,2,2,0,2,1403,2633,402,1939,10,10,0,10,0.00,0.00,0.00,0.00
2014-05-25 03:50:00,2,3232,10,0.00,2,2,0,2,1635,7019,1718,2524,10,10,0,10,0.00,0.00,0.00,0.00
2014-05-25 04:00:00,2,3309,10,0.00,2,2,0,2,1686,5846,1557,2880,10,10,0,10,0.00,0.00,0.00,0.00
2014-05-25 04:10:00,2,2454,10,0.00,2,2,0,2,1551,3944,772,2318,10,10,0,10,0.00,0.00,0.00,0.00
2014-05-25 04:20:00,2,2780,10,0.00,2,2,0,2,1180,6676,1863,2175,10,10,0,10,0.00,0.00,0.00,0.00
2014-05-25 04:30:00,2,2471,10,0.00,2,2,0,2,1266,4281,905,2479,10,10,0,10,0.00,0.00,0.00,0.00
2014-05-25 04:40:00,2,2181,10,0.00,2,2,0,2,1259,3714,741,1991,10,10,0,10,0.00,0.00,0.00,0.00
2014-05-25 04:50:00,2,3122,10,0.00,2,2,0,2,1802,5753,1139,2882,10,10,0,10,0.00,0.00,0.00,0.00
2014-05-25 05:00:00,2,4053,10,0.00,2,2,0,2,1718,8989,2527,3365,10,10,0,10,0.00,0.00,0.00,0.00
2014-05-25 05:10:00,2,3761,10,0.00,2,2,0,2,885,15733,4188,1920,10,10,0,10,0.00,0.00,0.00,0.00
2014-05-25 05:20:00,2,14480,10,0.00,2,2,0,2,5717,35078,9119,12424,10,10,0,10,0.00,0.00,0.00,0.00
2014-05-25 05:30:00,2,7834,4,0.00,2,2,0,2,4288,15457,3730,6700,0,10,5,0,0.00,0.00,0.00,0.00
2014-05-25 05:40:00,2,8953,9,0.00,2,2,0,2,5022,12749,2276,9322,0,10,3,10,0.00,0.00,0.00,0.00
2014-05-25 05:50:00,2,8191,10,0.00,2,2,0,2,4000,13662,3270,7662,10,10,0,10,0.00,0.00,0.00,0.00
2014-05-25 06:00:00,2,10838,10,0.00,2,2,0,2,5614,22231,4934,8566,10,10,0,10,0.00,0.00,0.00,0.00
2014-05-25 06:10:00,2,13637,10,0.00,2,2,0,2,5186,28536,7683,10806,10,10,0,10,0.00,0.00,0.00,0.00
2014-05-25 06:20:00,2,17107,4,0.00,2,2,0,2,8149,25537,6127,17682,0,10,5,0,0.00,0.00,0.00,0.00
2014-05-25 06:30:00,1,32808,0,0.00,0,2,1,0,25713,36417,3131,33274,0,0,0,0,0.00,0.00,0.00,0.00
2014-05-25 06:40:00,2,39811,0,0.00,0,2,1,2,30290,50000,6276,40066,0,0,0,0,0.00,0.00,0.00,0.00
2014-05-25 06:50:00,2,6808,7,0.00,2,2,0,2,1183,16378,4869,6848,0,10,5,10,0.00,0.00,0.00,0.00
2014-05-25 07:00:00,2,16549,8,0.00,0,2,1,2,12067,26447,4974,14668,0,10,4,10,0.00,0.00,0.00,0.00
2014-05-25 07:10:00,2,31995,0,0.00,0,2,1,2,11430,44339,10369,35068,0,0,0,0,0.00,0.00,0.00,0.00
2014-05-25 07:20:00,2,9732,2,0.00,0,2,1,2,2790,16077,4395,8436,0,10,4,0,0.00,0.00,0.00,0.00
2014-05-25 07:30:00,2,3024,10,0.00,2,2,0,2,668,8548,2829,1345,10,10,0,10,0.00,0.00,0.00,0.00
2014-05-25 07:40:00,2,2152,10,0.00,2,2,0,2,1137,4065,837,1930,10,10,0,10,0.00,0.00,0.00,0.00
2014-05-25 07:50:00,2,810,22,0.00,2,2,0,2,278,2922,817,374,10,34,12,20,0.00,0.00,0.00,0.00
2014-05-25 08:00:00,2,242,39,0.19,2,2,0,2,209,284,23,240,34,61,8,34,0.00,0.80,0.27,0.00
2014-05-25 08:10:00,2,630,48,0.11,2,2,0,2,294,1146,279,560,34,61,14,48,0.00,0.55,0.17,0.03
2014-05-25 08:20:00,2,463,49,4.96,2,2,0,2,401,559,45,450,34,62,10,52,0.00,16.25,6.20,1.02
2014-05-25 08:30:00,2,296,55,2.23,2,2,0,2,235,445,61,281,51,61,5,52,0.55,3.85,1.35,2.58
2014-05-25 08:40:00,2,329,48,0.80,2,2,0,2,267,408,52,318,34,51,7,51,0.00,1.90,0.69,0.95
2014-05-25 08:50:00,2,289,33,0.00,2,2,0,2,233,381,49,286,30,34,1,33,0.00,0.00,0.00,0.00
2014-05-25 09:00:00,2,303,34,0.00,2,2,0,2,271,368,27,298,34,34,0,34,0.00,0.00,0.00,0.00
2014-05-25 09:10:00,2,290,34,0.00,2,2,0,2,257,331,24,282,34,34,0,34,0.00,0.00,0.00,0.00
2014-05-25 09:20:00,2,270,33,0.00,2,2,0,2,245,307,20,266,33,34,0,33,0.00,0.00,0.00,0.00
2014-05-25 09:30:00,2,228,33,0.00,2,2,0,2,215,260,14,222,33,33,0,33,0.00,0.00,0.00,0.00
2014-05-25 09:40:00,2,225,31,0.00,2,2,0,2,212,239,10,224,30,33,1,30,0.00,0.00,0.00,0.00
2014-05-25 09:50:00,2,196,33,0.00,2,2,0,2,186,202,5,197,30,34,2,34,0.00,0.00,0.00,0.00
2014-05-25 10:00:00,2,191,34,0.00,2,2,0,2,181,201,7,192,34,34,0,34,0.00,0.00,0.00,0.00
2014-05-25 10:10:00,2,184,40,0.02,2,2,0,2,175,194,6,183,34,61,8,40,0.00,0.05,0.02,0.00
2014-05-25 10:20:00,2,180,47,0.04,2,2,0,2,163,187,8,182,41,61,9,41,0.00,0.05,0.02,0.05
2014-05-25 10:30:00,2,206,45,0.06,2,2,0,2,185,235,17,206,41,61,8,41,0.05,0.10,0.02,0.05
2014-05-25 10:40:00,2,210,77,0.07,2,2,0,2,184,241,17,205,77,77,0,77,0.00,0.10,0.03,0.05
2014-05-25 10:50:00,2,222,77,0.02,2,2,0,2,183,249,19,229,77,77,0,77,0.00,0.10,0.03,0.00
2014-05-25 11:00:00,2,246,77,0.07,2,2,0,2,197,320,34,238,77,77,0,77,0.00,0.15,0.04,0.08
2014-05-25 11:10:00,2,348,77,0.09,2,2,0,2,194,582,115,338,77,77,0,77,0.00,0.15,0.06,0.10
2014-05-25 11:20:00,2,561,37,0.00,2,2,0,2,255,1572,370,498,32,77,13,32,0.00,0.00,0.00,0.00
2014-05-25 11:30:00,2,238,32,0.00,2,2,0,2,198,296,31,238,32,32,0,32,0.00,0.00,0.00,0.00
2014-05-25 11:40:00,2,471,33,0.00,2,2,0,2,206,1106,331,282,31,33,1,33,0.00,0.00,0.00,0.00
2014-05-25 11:50:00,2,438,31,0.00,2,2,0,2,224,692,166,375,31,31,0,31,0.00,0.00,0.00,0.00
2014-05-25 12:00:00,2,575,31,0.00,2,2,0,2,230,1843,477,332,31,31,0,31,0.00,0.00,0.00,0.00
2014-05-25 12:10:00,1,358,33,0.00,0,2,1,0,265,646,99,342,33,33,0,33,0.00,0.00,0.00,0.00
2014-05-25 12:20:00,0,684,32,0.00,0,0,0,0,288,1200,306,630,31,33,1,32,0.00,0.00,0.00,0.00
2014-05-25 12:30:00,0,252,31,0.00,0,0,0,0,194,322,45,237,31,31,0,31,0.00,0.00,0.00,0.00
2014-05-25 12:40:00,0,235,31,0.00,0,0,0,0,162,319,65,226,31,31,0,31,0.00,0.00,0.00,0.00
2014-05-25 12:50:00,0,214,33,0.00,0,0,0,0,189,261,23,202,31,34,1,34,0.00,0.00,0.00,0.00
2014-05-25 13:00:00,0,511,34,0.00,0,0,0,0,223,993,274,403,34,34,0,34,0.00,0.00,0.00,0.00
2014-05-25 13:10:00,0,866,34,0.00,0,0,0,0,310,1431,416,871,34,34,0,34,0.00,0.00,0.00,0.00
2014-05-25 13:20:00,0,361,32,0.00,0,0,0,0,210,523,123,350,32,34,1,32,0.00,0.00,0.00,0.00
2014-05-25 13:30:00,0,425,32,0.00,0,0,0,0,374,462,27,429,32,32,0,32,0.00,0.00,0.00,0.00
2014-05-25 13:40:00,0,368,32,0.00,0,0,0,0,336,413,24,363,32,32,0,32,0.00,0.00,0.00,0.00
2014-05-25 13:50:00,0,419,33,0.00,0,0,0,0,343,495,41,422,32,34,1,33,0.00,0.00,0.00,0.00
2014-05-25 14:00:00,0,499,34,0.00,0,0,0,0,328,738,114,514,33,34,0,34,0.00,0.00,0.00,0.00
2014-05-25 14:10:00,0,570,32,0.00,0,0,0,0,401,1126,195,524,30,33,1,33,0.00,0.00,0.00,0.00
2014-05-25 14:20:00,0,818,32,0.00,0,0,0,0,663,1076,115,781,30,32,1,32,0.00,0.00,0.00,0.00
2014-05-25 14:30:00,0,614,32,0.00,0,0,0,0,505,767,80,620,32,32,0,32,0.00,0.00,0.00,0.00
2014-05-25 14:40:00,0,5198,30,0.00,0,0,0,0,1225,12237,3653,4368,20,32,5,32,0.00,0.00,0.00,0.00
2014-05-25 14:50:00,0,11285,20,0.00,0,0,0,0,6742,15599,2670,12380,20,20,0,20,0.00,0.00,0.00,0.00
2014-05-25 15:00:00,0,14633,20,0.00,0,0,0,0,9895,20092,3202,14159,20,20,0,20,0.00,0.00,0.00,0.00
2014-05-25 15:10:00,0,5008,20,0.00,0,0,0,0,942,14420,4207,3398,20,20,0,20,0.00,0.00,0.00,0.00
2014-05-25 15:20:00,0,2603,20,0.00,0,0,0,0,1208,6355,1426,2054,20,20,0,20,0.00,0.00,0.00,0.00
2014-05-25 15:30:00,0,1972,20,0.00,0,0,0,0,969,3267,754,1797,20,20,0,20,0.00,0.00,0.00,0.00
2014-05-25 15:40:00,0,5843,18,0.00,0,0,0,0,2887,7354,1488,6353,10,20,4,20,0.00,0.00,0.00,0.00
2014-05-25 15:50:00,1,34259,9,0.00,0,2,1,0,6521,50000,15471,40033,0,10,3,10,0.00,0.00,0.00,0.00
2014-05-25 16:00:00,2,50000,0,0.00,2,2,0,2,50000,50000,0,50000,0,0,0,0,0.00,0.00,0.00,0.00
2014-05-25 16:10:00,2,50000,0,0.00,2,2,0,2,50000,50000,0,50000,0,0,0,0,0.00,0.00,0.00,0.00
2014-05-25 16:20:00,2,48802,0,0.00,2,2,0,2,41199,50000,2706,50000,0,0,0,0,0.00,0.00,0.00,0.00
2014-05-25 16:30:00,2,35182,0,0.00,2,2,0,2,18523,47965,10295,36335,0,0,0,0,0.00,0.00,0.00,0.00
2014-05-25 16:40:00,2,50000,0,0.00,2,2,0,2,50000,50000,0,50000,0,0,0,0,0.00,0.00,0.00,0.00
2014-05-25 16:50:00,0,49678,0,0.00,0,2,1,0,48413,50000,537,50000,0,0,0,0,0.00,0.00,0.00,0.00
2014-05-25 17:00:00,0,45355,0,0.00,0,0,0,0,38320,50000,3894,45660,0,0,0,0,0.00,0.00,0.00,0.00
2014-05-25 17:10:00,0,47450,0,0.00,0,0,0,0,40772,50000,3603,49672,0,0,0,0,0.00,0.00,0.00,0.00
2014-05-25 17:20:00,0,42090,0,0.00,0,0,0,0,26640,50000,8266,45130,0,0,0,0,0.00,0.00,0.00,0.00
2014-05-25 17:30:00,0,49004,0,0.00,0,0,0,0,45292,50000,1742,50000,0,0,0,0,0.00,0.00,0.00,0.00
2014-05-25 17:40:00,1,49368,0,0.00,0,2,1,2,44061,50000,1773,50000,0,0,0,0,0.00,0.00,0.00,0.00
2014-05-25 17:50:00,2,47640,0,0.00,2,2,0,2,41154,50000,2890,48980,0,0,0,0,0.00,0.00,0.00,0.00
2014-05-25 18:00:00,2,46699,0,0.00,2,2,0,2,38579,50000,3571,47970,0,0,0,0,0.00,0.00,0.00,0.00
2014-05-25 18:10:00,2,4690,5,0.00,2,2,0,2,1870,12805,3606,2641,0,10,5,5,0.00,0.00,0.00,0.00
2014-05-25 18:20:00,2,1407,10,0.00,2,2,0,2,935,2268,463,1149,10,10,0,10,0.00,0.00,0.00,0.00
2014-05-25 18:30:00,2,1542,24,0.00,2,2,0,2,808,3914,1018,990,10,30,9,30,0.00,0.00,0.00,0.00
2014-05-25 18:40:00,2,3026,21,0.00,2,2,0,2,1868,5467,1085,2574,20,30,3,20,0.00,0.00,0.00,0.00
2014-05-25 18:50:00,2,2642,20,0.00,2,2,0,2,1847,4645,904,2246,20,20,0,20,0.00,0.00,0.00,0.00
2014-05-25 19:00:00,2,15162,20,0.00,2,2,0,2,5943,33516,8668,12112,20,20,0,20,0.00,0.00,0.00,0.00
2014-05-25 19:10:00,2,32966,20,0.00,2,2,0,2,16123,50000,11277,34812,20,20,0,20,0.00,0.00,0.00,0.00
2014-05-25 19:20:00,2,23611,20,0.00,2,2,0,2,11505,42241,8499,20489,20,20,0,20,0.00,0.00,0.00,0.00
2014-05-25 19:30:00,2,34398,20,0.00,2,2,0,2,28888,41617,3905,33286,20,20,0,20,0.00,0.00,0.00,0.00
2014-05-25 19:40:00,2,34552,2,0.00,2,2,0,2,20199,49232,8289,34228,0,20,6,0,0.00,0.00,0.00,0.00
2014-05-25 19:50:00,2,31563,0,0.00,2,2,0,2,26990,38106,3705,30818,0,0,0,0,0.00,0.00,0.00,0.00
2014-05-25 20:00:00,2,41266,0,0.00,2,2,0,2,29094,46544,5223,43448,0,0,0,0,0.00,0.00,0.00,0.00
2014-05-25 20:10:00,2,48048,0,0.00,2,2,0,2,42662,50000,2493,49685,0,0,0,0,0.00,0.00,0.00,0.00
2014-05-25 20:20:00,2,47326,0,0.00,2,2,0,2,41449,50000,3566,49790,0,0,0,0,0.00,0.00,0.00,0.00
2014-05-25 20:30:00,2,50000,0,0.00,2,2,0,2,50000,50000,0,50000,0,0,0,0,0.00,0.00,0.00,0.00
2014-05-25 20:40:00,2,48739,0,0.00,2,2,0,2,41904,50000,2447,50000,0,0,0,0,0.00,0.00,0.00,0.00
2014-05-25 20:50:00,2,50000,0,0.00,2,2,0,2,50000,50000,0,50000,0,0,0,0,0.00,0.00,0.00,0.00
2014-05-25 21:00:00,2,48416,0,0.00,2,2,0,2,45152,50000,1549,48561,0,0,0,0,0.00,0.00,0.00,0.00
2014-05-25 21:10:00,2,50000,0,0.00,2,2,0,2,50000,50000,0,50000,0,0,0,0,0.00,0.00,0.00,0.00
2014-05-25 21:20:00,2,45115,0,0.00,2,2,0,2,12726,50000,11032,49856,0,0,0,0,0.00,0.00,0.00,0.00
2014-05-25 21:30:00,2,1892,11,0.00,2,2,0,2,402,6958,2302,656,0,34,11,10,0.00,0.00,0.00,0.00
2014-05-25 21:40:00,2,464,34,0.00,2,2,0,2,387,690,88,424,34,34,0,34,0.00,0.00,0.00,0.00
2014-05-25 21:50:00,2,558,34,0.00,2,2,0,2,382,1033,204,462,34,34,0,34,0.00,0.00,0.00,0.00
2014-05-25 22:00:00,2,4995,30,0.00,2,2,0,2,1130,9146,2557,5772,20,34,6,34,0.00,0.00,0.00,0.00
2014-05-25 22:10:00,2,2125,20,0.00,2,2,0,2,537,7232,2131,1067,20,20,0,20,0.00,0.00,0.00,0.00
2014-05-25 22:20:00,2,1965,20,0.00,2,2,0,2,730,4582,1168,1634,20,20,0,20,0.00,0.00,0.00,0.00
2014-05-25 22:30:00,2,700,28,0.00,2,2,0,2,470,995,150,717,20,32,5,32,0.00,0.00,0.00,0.00
2014-05-25 22:40:00,2,496,33,0.00,2,2,0,2,434,585,45,488,32,34,1,33,0.00,0.00,0.00,0.00
2014-05-25 22:50:00,2,496,34,0.00,2,2,0,2,384,650,70,497,34,34,0,34,0.00,0.00,0.00,0.00
2014-05-25 23:00:00,2,701,34,0.00,2,2,0,2,520,1191,201,637,34,34,0,34,0.00,0.00,0.00,0.00
2014-05-25 23:10:00,2,498,34,0.00,2,2,0,2,425,646,60,496,34,34,0,34,0.00,0.00,0.00,0.00
2014-05-25 23:20:00,2,616,34,0.00,2,2,0,2,466,699,71,634,33,34,0,34,0.00,0.00,0.00,0.00
2014-05-25 23:30:00,2,635,32,0.00,2,2,0,2,371,1131,240,568,30,33,1,33,0.00,0.00,0.00,0.00
2014-05-25 23:40:00,2,2425,32,0.00,2,2,0,2,506,6134,2065,1262,30,33,1,33,0.00,0.00,0.00,0.00
2014-05-25 23:50:00,2,3221,23,0.00,2,2,0,2,1424,10210,2463,2244,20,33,5,20,0.00,0.00,0.00,0.00
